CDT,Max TemperatureF,Mean TemperatureF,Min TemperatureF,Max Dew PointF,MeanDew PointF,Min DewpointF,Max Humidity, Mean Humidity, Min Humidity, Max Sea Level PressureIn, Mean Sea Level PressureIn, Min Sea Level PressureIn, Max VisibilityMiles, Mean VisibilityMiles, Min VisibilityMiles, Max Wind SpeedMPH, Mean Wind SpeedMPH, Max Gust SpeedMPH,PrecipitationIn, CloudCover, Events, WindDirDegrees
2013-7-1,82,71,60,60,51,41,90,59,27,30.14,30.09,30.05,10,10,10,16,6,21,0.00,1,,64
2013-7-2,86,70,54,48,42,36,72,45,17,30.14,30.08,29.99,10,10,10,13,4,20,0.00,1,,110
2013-7-3,84,72,60,54,46,41,51,39,27,30.04,29.94,29.83,10,10,10,24,10,28,0.01,3,Rain,180
2013-7-4,92,76,60,51,48,45,60,42,23,29.88,29.82,29.75,10,10,10,25,13,33,0.00,1,,188
2013-7-5,98,82,66,53,50,46,56,38,20,29.78,29.71,29.62,10,10,10,31,18,40,0.00,0,,183
2013-7-6,100,88,76,52,49,47,38,29,19,29.90,29.69,29.64,10,10,10,31,20,45,0.00,0,,192
2013-7-7,101,85,68,53,51,47,53,36,19,29.86,29.79,29.76,10,10,10,26,13,31,0.00,1,,196
2013-7-8,102,88,73,55,53,51,53,36,19,29.91,29.86,29.81,10,10,10,28,14,32,0.00,0,,194
2013-7-9,104,88,72,58,56,52,54,37,19,29.90,29.85,29.78,10,10,10,25,14,33,0.02,0,,200
2013-7-10,101,86,70,66,61,53,73,47,21,30.15,29.95,29.81,10,9,2,31,11,43,0.29,3,Rain-Thunderstorm,120
2013-7-11,94,82,70,66,63,60,84,59,33,30.18,29.92,29.79,10,10,10,20,10,25,0.08,1,Rain,173
2013-7-12,101,86,70,63,59,53,78,50,21,29.84,29.79,29.73,10,10,10,25,14,33,0.00,0,,180
2013-7-13,103,86,69,59,53,46,66,41,15,29.87,29.81,29.74,10,10,10,21,11,30,0.00,0,,192
2013-7-14,84,74,64,64,58,50,84,60,35,30.13,29.91,29.77,10,10,4,23,11,30,0.09,4,Rain-Thunderstorm,157
2013-7-15,78,68,58,61,58,53,100,75,49,30.22,30.11,30.01,10,8,0,18,6,22,0.01,6,Fog-Rain,38
2013-7-16,75,68,61,65,62,59,97,83,68,30.23,30.17,30.07,10,9,2,22,8,26,0.13,7,Rain,112
2013-7-17,83,75,66,67,64,61,93,72,51,30.35,30.23,30.13,10,10,8,20,10,26,0.09,6,Rain,143
2013-7-18,89,77,65,65,63,60,93,66,38,30.28,30.09,29.89,10,10,9,23,14,31,0.00,3,,182
2013-7-19,96,83,70,64,62,59,84,58,32,29.94,29.84,29.74,10,10,10,26,16,33,0.00,0,,194
2013-7-20,94,82,70,66,63,57,84,58,32,29.99,29.81,29.73,10,10,10,29,10,36,T,3,Thunderstorm,203
2013-7-21,100,86,71,64,60,55,73,49,24,29.91,29.74,29.65,10,10,10,21,10,26,0.00,1,Thunderstorm,204
2013-7-22,102,87,72,63,56,52,66,43,19,29.76,29.72,29.66,10,10,10,22,13,28,0.00,0,,198
2013-7-23,105,90,74,66,57,45,64,41,17,29.87,29.74,29.67,10,10,7,32,16,53,T,0,Rain-Thunderstorm,220
2013-7-24,94,81,67,65,62,58,87,60,32,30.14,29.96,29.81,10,10,10,24,12,30,0.06,1,,85
2013-7-25,87,78,69,70,65,59,84,66,48,30.17,29.96,29.85,10,10,2,30,14,38,0.16,4,Rain-Thunderstorm,211
2013-7-26,88,76,64,66,60,50,93,61,28,30.20,30.05,29.96,10,10,10,22,11,30,0.00,2,,15
2013-7-27,97,80,63,61,54,47,90,55,20,30.08,29.89,29.70,10,10,10,30,16,39,0.00,0,,193
2013-7-28,95,80,65,67,56,48,73,49,24,29.98,29.81,29.68,10,10,10,23,8,31,0.07,3,Rain-Thunderstorm,209
2013-7-29,96,82,67,69,63,59,82,56,29,29.86,29.77,29.70,10,10,10,22,9,28,T,2,Rain,182
2013-7-30,93,81,69,69,65,59,97,67,36,30.17,30.00,29.91,10,10,6,15,7,17,0.06,4,Rain,42
2013-7-31,92,80,67,68,64,59,90,66,41,30.25,30.08,29.96,10,10,6,29,8,37,0.00,2,Thunderstorm,134